TimeCDT,TemperatureF,Dew PointF,Humidity,Sea Level PressureIn,VisibilityMPH,Wind Direction,Wind SpeedMPH,Gust SpeedMPH,PrecipitationIn,Events,Conditions,WindDirDegrees,DateUTC
12:53 AM,68.0,64.9,90,30.02,10.0,Calm,Calm,-,N/A,,Clear,0,2013-10-01 05:53:00
1:53 AM,66.9,64.9,93,30.03,10.0,Calm,Calm,-,N/A,,Mostly Cloudy,0,2013-10-01 06:53:00
2:30 AM,66.2,64.4,94,30.03,1.5,Calm,Calm,-,N/A,,Clear,0,2013-10-01 07:30:00
2:40 AM,66.2,64.4,94,30.03,4.0,Calm,Calm,-,N/A,,Clear,0,2013-10-01 07:40:00
2:53 AM,66.0,63.0,90,30.03,8.0,Calm,Calm,-,N/A,,Clear,0,2013-10-01 07:53:00
3:37 AM,66.2,64.4,94,30.03,10.0,Calm,Calm,-,N/A,,Mostly Cloudy,0,2013-10-01 08:37:00
3:53 AM,66.0,64.0,93,30.03,9.0,Calm,Calm,-,N/A,,Mostly Cloudy,0,2013-10-01 08:53:00
4:14 AM,64.4,62.6,94,30.04,9.0,Calm,Calm,-,N/A,,Partly Cloudy,0,2013-10-01 09:14:00
4:53 AM,66.0,64.0,93,30.04,9.0,ENE,3.5,-,N/A,,Clear,60,2013-10-01 09:53:00
5:53 AM,66.0,64.0,93,30.04,9.0,East,3.5,-,N/A,,Overcast,80,2013-10-01 10:53:00
6:53 AM,66.0,63.0,90,30.07,7.0,ENE,3.5,-,N/A,,Mostly Cloudy,60,2013-10-01 11:53:00
7:53 AM,68.0,64.0,87,30.08,10.0,ENE,4.6,-,N/A,,Partly Cloudy,60,2013-10-01 12:53:00
8:53 AM,73.0,66.0,79,30.10,10.0,ENE,3.5,-,N/A,,Clear,70,2013-10-01 13:53:00
9:53 AM,78.1,66.9,68,30.10,10.0,East,5.8,-,N/A,,Clear,80,2013-10-01 14:53:00
10:53 AM,82.0,69.1,65,30.09,10.0,ESE,5.8,-,N/A,,Partly Cloudy,120,2013-10-01 15:53:00
11:32 AM,84.2,69.8,62,30.09,10.0,East,5.8,-,N/A,,Mostly Cloudy,80,2013-10-01 16:32:00
11:43 AM,82.4,68.0,62,30.09,10.0,East,5.8,-,N/A,,Mostly Cloudy,90,2013-10-01 16:43:00
11:53 AM,82.9,68.0,60,30.08,10.0,East,4.6,-,N/A,,Partly Cloudy,90,2013-10-01 16:53:00
12:53 PM,87.1,64.9,48,30.05,10.0,NE,8.1,-,N/A,,Partly Cloudy,40,2013-10-01 17:53:00
1:53 PM,88.0,64.9,46,30.04,10.0,East,6.9,-,N/A,,Clear,80,2013-10-01 18:53:00
2:53 PM,86.0,66.0,51,30.02,10.0,NE,3.5,-,N/A,,Overcast,50,2013-10-01 19:53:00
3:53 PM,88.0,64.9,46,30.01,10.0,Variable,4.6,-,N/A,,Partly Cloudy,0,2013-10-01 20:53:00
4:53 PM,87.1,66.0,49,30.01,10.0,Variable,4.6,-,N/A,,Clear,0,2013-10-01 21:53:00
5:53 PM,82.0,66.9,60,30.02,10.0,Calm,Calm,-,N/A,,Clear,0,2013-10-01 22:53:00
6:53 PM,75.9,70.0,82,30.03,10.0,Calm,Calm,-,N/A,,Partly Cloudy,0,2013-10-01 23:53:00
7:53 PM,73.9,69.1,85,30.05,9.0,Calm,Calm,-,N/A,,Clear,0,2013-10-02 00:53:00
8:53 PM,73.0,68.0,84,30.06,10.0,Calm,Calm,-,N/A,,Mostly Cloudy,0,2013-10-02 01:53:00
9:53 PM,72.0,68.0,87,30.07,10.0,Calm,Calm,-,N/A,,Clear,0,2013-10-02 02:53:00
10:53 PM,71.1,68.0,90,30.08,10.0,Calm,Calm,-,N/A,,Scattered Clouds,0,2013-10-02 03:53:00
11:53 PM,70.0,66.9,90,30.07,9.0,Calm,Calm,-,N/A,,Partly Cloudy,0,2013-10-02 04:53:00